User: anonymous   Login
Location: South Range
(44.4886°N, 65.7879°W)
Time: 05:42:24
(UTC-03:00)
Language:

Iridium 56 - Orbit

View from above orbital plane
View from above orbital plane
View from above satellite
View from above satellite

Ground track
Ground track

The orbit data is extracted from the following two-line orbital elements,

1 25170U 98010B   15208.35686286  .00000193  00000-0  61776-4 0  9997
2 25170 086.3973 279.2146 0002540 090.0513 316.7810 14.34219442912746
Epoch (UTC): 27 July 2015 08:33:52
Eccentricity: 0.0002540
inclination: 86.3973°
perigee height: 776 km
apogee height: 779 km
right ascension of ascending node: 279.2146°
argument of perigee: 90.0513°
revolutions per day: 14.34219442
mean anomaly at epoch: 316.7810°
orbit number at epoch: 91274

The dashed part of the orbit path shows where the satellite is in the earth's shadow,  

DLR